www.pogodaiklimat.ru

Погода и климат >> Архив погоды >> Австралия >> Moomba Airport


ПОГОДА в Moomba Airport

  • Прогноз погоды в Moomba Airport
  • Монитор погоды в Moomba Airport
  • Климат города

АРХИВ ПОГОДЫ в Moomba Airport

Время (UTC), дата Ветер
(напр.,м/с)
 
Видим.   Явления Облачность Т
(С)
Тd
(С)
f
(%)
Тe
(С)
Тes
(С)
Комфортность P
(гПа)
Po
(гПа)
Тmin
(С)
Tmax
(С)
R
(мм)
S
(см)
07 17.02 З 3 н/о н/о +41.7 -3.1 6 +38 +38 очень
жарко
1005.5 1001.2
08 17.02 З 3 н/о н/о +41.6 -1.1 7 +38 +38 очень
жарко
1005.4 1001.1
09 17.02 З 4 н/о н/о +40.1 -0.4 8 +36 +36 очень
жарко
1005.5 1001.2
10 17.02 ЮЗ 6 н/о н/о +37.6 +0.8 10 +34 +34 очень
жарко
1006.2 1001.9
11 17.02 ЮЗ 6 н/о н/о +35.8 +5.1 15 +33 +33 жарко 1006.9 1002.6
12 17.02 ЮЗ 6 н/о н/о +34.2 +7.3 19 +32 +32 жарко 1007.5 1003.2
13 17.02 ЮЗ 8 н/о н/о +32.2 +9.1 24 +31 +31 жарко 1008.0 1003.7
14 17.02 ЮЗ 9 н/о н/о +30.0 +10.0 29 +30 +30 жарко 1008.2 1003.9
15 17.02 ЮЗ 7 н/о н/о +28.9 +9.6 30 +29 +29 жарко 1008.2 1003.9
16 17.02 ЮЗ 7 н/о н/о +27.7 +8.6 30 +28 +28 жарко 1007.9 1003.6
17 17.02 ЮЗ 8 н/о н/о +26.9 +7.9 30 +27 +27 жарко 1007.9 1003.6
18 17.02 Ю 7 н/о н/о +25.6 +8.6 34 +26 +26 жарко 1008.5 1004.2
19 17.02 Ю 7 н/о н/о +23.4 +10.5 44 +25 +25 комфорт 1009.1 1004.8
20 17.02 Ю 8 н/о н/о +22.7 +10.2 45 +25 +25 комфорт 1009.6 1005.3
21 17.02 Ю 10 н/о н/о +22.4 +10.2 46 +24 +24 комфорт 1010.6 1006.3
22 17.02 Ю 9 н/о н/о +23.4 +10.1 43 +25 +25 комфорт 1011.5 1007.2
23 17.02 Ю 10 н/о н/о +24.5 +9.6 39 +25 +25 комфорт 1012.2 1007.9
00 18.02 Ю 9 н/о н/о +26.2 +10.0 36 +27 +27 жарко 1012.5 1008.2
01 18.02 Ю 8 н/о н/о +27.1 +9.9 34 +28 +28 жарко 1012.2 1007.9
02 18.02 Ю 8 н/о н/о +28.9 +10.1 31 +29 +29 жарко 1011.7 1007.4
03 18.02 Ю 7 н/о н/о +29.8 +9.3 28 +29 +29 жарко 1011.5 1007.2
04 18.02 Ю 7 н/о н/о +30.1 +7.3 24 +29 +29 жарко 1011.1 1006.8
05 18.02 Ю 7 н/о н/о +31.2 +6.3 21 +30 +30 жарко 1010.3 1006.0
06 18.02 ЮЗ 8 н/о н/о +30.5 +6.4 22 +29 +29 жарко 1010.0 1005.7
07 18.02 ЮЗ 8 н/о н/о +29.6 +3.6 19 +28 +28 жарко 1009.6 1005.3
08 18.02 Ю 6 н/о н/о +29.1 +4.6 21 +27 +27 жарко 1009.5 1005.2
09 18.02 Ю 6 н/о н/о +28.2 +5.1 23 +27 +27 жарко 1009.8 1005.5
10 18.02 Ю 4 н/о н/о +27.1 +4.8 24 +26 +26 жарко 1010.5 1006.2
11 18.02 Ю 4 н/о н/о +26.1 +4.6 25 +25 +25 комфорт 1011.2 1006.9
12 18.02 Ю 7 н/о н/о +25.8 +4.9 26 +25 +25 комфорт 1011.8 1007.5
13 18.02 Ю 3 н/о н/о +23.9 +5.3 30 +24 +24 комфорт 1012.2 1007.9
14 18.02 ЮЗ 3 н/о н/о +22.5 +5.0 32 +23 +23 комфорт 1012.4 1008.1
15 18.02 ЮЗ 4 н/о н/о +22.2 +5.2 33 +23 +23 комфорт 1012.2 1007.9
16 18.02 Ю 6 н/о н/о +21.6 +5.5 35 +22 +22 комфорт 1012.0 1007.7
17 18.02 Ю 8 н/о н/о +20.7 +5.1 36 +21 +21 комфорт 1011.8 1007.5
18 18.02 Ю 8 н/о н/о +20.1 +5.4 38 +20 +20 1012.3 1008.0
19 18.02 Ю 8 н/о н/о +19.6 +5.3 39 +20 +20 1013.0 1008.7
20 18.02 Ю 7 н/о н/о +18.8 +4.9 40 +18 +18 1013.7 1009.4
21 18.02 Ю 7 н/о н/о +18.4 +4.9 41 +18 +18 1014.7 1010.3
22 18.02 Ю 8 н/о н/о +19.6 +4.1 36 +19 +19 1015.4 1011.0
23 18.02 Ю 8 н/о н/о +21.3 +4.4 33 +22 +22 комфорт 1015.3 1010.9
00 19.02 Ю 8 н/о н/о +22.7 +4.2 30 +23 +23 комфорт 1015.4 1011.0
01 19.02 Ю 6 н/о н/о +23.7 +4.1 28 +23 +23 комфорт 1015.7 1011.3
02 19.02 Ю 5 н/о н/о +24.8 +4.5 27 +24 +24 комфорт 1014.3 1009.9
03 19.02 ЮЗ 5 н/о н/о +26.3 +4.1 24 +25 +25 комфорт 1013.4 1009.1
04 19.02 Ю 5 н/о н/о +26.3 +4.1 24 +25 +25 комфорт 1012.8 1008.5
05 19.02 Ю 5 н/о н/о +27.6 +4.0 22 +26 +26 жарко 1012.1 1007.8
06 19.02 Ю 5 н/о н/о +27.7 +2.7 20 +26 +26 жарко 1011.9 1007.6
07 19.02 Ю 6 н/о н/о +27.1 +2.2 20 +25 +25 комфорт 1011.7 1007.4
08 19.02 Ю 7 н/о н/о +26.3 +0.9 19 +25 +25 комфорт 1012.0 1007.7
09 19.02 Ю 6 н/о н/о +25.2 0.0 19 +24 +24 комфорт 1012.8 1008.5
10 19.02 Ю 5 н/о н/о +23.8 +0.8 22 +23 +23 комфорт 1013.6 1009.3
11 19.02 Ю 5 н/о н/о +23.1 -0.4 21 +22 +22 комфорт 1014.4 1010.0
12 19.02 Ю 4 н/о н/о +22.1 0.0 23 +21 +21 комфорт 1014.6 1010.2
13 19.02 Ю 4 н/о н/о +21.6 +0.2 24 +21 +21 комфорт 1014.6 1010.2
14 19.02 Ю 3 н/о н/о +20.4 -0.3 25 +21 +21 комфорт 1014.6 1010.2
15 19.02 Ю 2 н/о н/о +19.2 -0.2 27 +20 +20 1014.3 1009.9
16 19.02 Ю 2 н/о н/о +18.9 0.0 28 +20 +20 1014.2 1009.8
17 19.02 Ю 2 н/о н/о +16.9 +0.1 32 +17 +17 1014.0 1009.6
18 19.02 Ю 3 н/о н/о +16.2 -0.1 33 +16 +16 1013.7 1009.4
19 19.02 Ю 4 н/о н/о +16.1 -0.2 33 +16 +16 1014.0 1009.6
20 19.02 Ю 4 н/о н/о +16.0 +1.3 37 +16 +16 1014.1 1009.7
21 19.02 Ю 5 н/о н/о +16.8 +3.8 42 +16 +16 1014.6 1010.2
22 19.02 Ю 6 н/о н/о +19.7 +3.8 35 +20 +20 1015.3 1010.9
23 19.02 ЮВ 6 н/о н/о +22.7 +3.8 29 +23 +23 комфорт 1015.8 1011.4
00 20.02 ЮВ 6 н/о н/о +24.9 +3.5 25 +24 +24 комфорт 1016.0 1011.6
01 20.02 ЮВ 5 н/о н/о +26.5 +3.7 23 +25 +25 комфорт 1015.6 1011.2
02 20.02 ЮВ 4 н/о н/о +27.4 +3.8 22 +26 +26 жарко 1015.1 1010.7
03 20.02 ЮВ 4 н/о н/о +28.3 +2.5 19 +26 +26 жарко 1014.5 1010.1
04 20.02 Ю 5 н/о н/о +29.0 +1.5 17 +27 +27 жарко 1013.6 1009.3
05 20.02 ЮВ 3 н/о н/о +29.9 +2.2 17 +28 +28 жарко 1012.8 1008.5
06 20.02 ЮВ 4 н/о н/о +30.0 +1.5 16 +27 +27 жарко 1012.4 1008.1
07 20.02 ЮВ 4 н/о н/о +29.7 +2.1 17 +27 +27 жарко 1012.2 1007.9
08 20.02 Ю 4 н/о н/о +29.6 +2.0 17 +27 +27 жарко 1012.4 1008.1
09 20.02 ЮВ 4 н/о н/о +28.9 +2.2 18 +27 +27 жарко 1012.9 1008.6
10 20.02 Ю 4 н/о н/о +27.2 +2.3 20 +26 +26 жарко 1013.8 1009.5
11 20.02 Ю 4 н/о н/о +26.2 +2.8 22 +25 +25 комфорт 1014.6 1010.2
12 20.02 Ю 4 н/о н/о +24.3 +3.0 25 +24 +24 комфорт 1015.3 1010.9
13 20.02 Ю 5 н/о н/о +24.2 +3.5 26 +24 +24 комфорт 1015.1 1010.7
14 20.02 Ю 6 н/о н/о +23.6 +3.5 27 +23 +23 комфорт 1014.9 1010.5
15 20.02 ЮВ 5 н/о н/о +22.2 +3.3 29 +22 +22 комфорт 1014.6 1010.2
16 20.02 ЮВ 4 н/о н/о +20.9 +3.2 31 +22 +22 комфорт 1014.4 1010.0
17 20.02 ЮВ 4 н/о н/о +20.3 +3.1 32 +21 +21 комфорт 1014.2 1009.8
18 20.02 ЮВ 3 н/о н/о +19.5 +2.8 33 +20 +20 1014.3 1009.9
19 20.02 ЮВ 4 н/о н/о +19.3 +3.1 34 +20 +20 1014.6 1010.2
20 20.02 ЮВ 3 н/о н/о +18.2 +2.9 36 +18 +18 1015.4 1011.0
21 20.02 ЮВ 4 н/о н/о +18.5 +2.8 35 +19 +19 1016.2 1011.8
22 20.02 В 6 н/о н/о +21.6 +2.8 29 +22 +22 комфорт 1016.8 1012.4
23 20.02 В 7 н/о н/о +25.4 +2.2 22 +24 +24 комфорт 1017.0 1012.6
00 21.02 В 6 н/о н/о +28.0 +3.0 20 +26 +26 жарко 1017.0 1012.6
01 21.02 В 4 н/о н/о +30.4 +2.6 17 +28 +28 жарко 1016.5 1012.1
02 21.02 В 4 н/о н/о +31.5 +2.7 16 +29 +29 жарко 1015.6 1011.2
03 21.02 С 2 н/о н/о +32.1 +1.3 14 +29 +29 жарко 1014.7 1010.3
04 21.02 В 3 н/о н/о +33.3 +0.1 12 +30 +30 жарко 1013.6 1009.3
05 21.02 ЮВ 2 н/о н/о +33.9 -0.7 11 +30 +30 жарко 1012.7 1008.4
06 21.02 СВ 2 н/о н/о +33.7 -0.8 11 +30 +30 жарко 1012.0 1007.7
07 21.02 ЮВ 4 н/о н/о +33.8 -2.0 10 +30 +30 жарко 1011.8 1007.5
08 21.02 В 4 н/о н/о +33.8 -2.0 10 +30 +30 жарко 1011.6 1007.3
09 21.02 В 3 н/о н/о +32.5 -1.7 11 +29 +29 жарко 1011.9 1007.6
10 21.02 ЮВ 3 н/о н/о +30.6 -2.0 12 +27 +27 жарко 1012.1 1007.8
11 21.02 Ю 3 н/о н/о +29.6 -1.7 13 +27 +27 жарко 1012.6 1008.3
12 21.02 Ю 3 н/о н/о +27.9 -1.1 15 +25 +25 комфорт 1012.9 1008.6
13 21.02 Ю 2 н/о н/о +25.5 -1.3 17 +24 +24 комфорт 1012.7 1008.4
14 21.02 Ю 1 н/о н/о +23.8 -1.2 19 +22 +22 комфорт 1012.2 1007.9
15 21.02 ЮВ 3 н/о н/о +23.0 -1.1 20 +22 +22 комфорт 1011.9 1007.6
16 21.02 В 4 н/о н/о +22.5 -0.9 21 +22 +22 комфорт 1011.4 1007.1
17 21.02 В 3 н/о н/о +20.7 -1.1 23 +21 +21 комфорт 1010.9 1006.6
18 21.02 В 3 н/о н/о +19.7 -0.9 25 +20 +20 1011.0 1006.7
19 21.02 В 3 н/о н/о +19.1 -0.8 26 +20 +20 1011.3 1007.0
20 21.02 В 3 н/о н/о +18.2 -0.6 28 +19 +19 1011.8 1007.5
21 21.02 СВ 4 н/о н/о +20.2 +0.1 26 +20 +20 1012.1 1007.8
22 21.02 СВ 4 н/о н/о +25.9 +1.2 20 +24 +24 комфорт 1012.6 1008.3
23 21.02 СВ 4 н/о н/о +30.9 -0.7 13 +28 +28 жарко 1012.9 1008.6
00 22.02 СВ 5 н/о н/о +34.2 -1.7 10 +30 +30 жарко 1012.7 1008.4
01 22.02 С 6 н/о н/о +36.9 -2.7 8 +33 +33 жарко 1012.2 1007.9
02 22.02 СЗ 4 н/о н/о +37.2 -0.9 9 +33 +33 жарко 1011.6 1007.3
03 22.02 З 3 н/о н/о +37.7 -2.2 8 +34 +34 очень
жарко
1010.9 1006.6
04 22.02 ЮЗ 2 н/о н/о +38.6 -3.3 7 +34 +34 очень
жарко
1010.3 1006.0
05 22.02 СЗ 5 н/о н/о +38.9 -3.1 7 +35 +35 очень
жарко
1009.7 1005.4
06 22.02 СЗ 2 н/о н/о +39.6 -2.6 7 +36 +36 очень
жарко
1009.2 1004.9
07 22.02 СЗ 3 н/о н/о +39.2 -4.9 6 +35 +35 очень
жарко
1009.1 1004.8
08 22.02 ЮЗ 3 н/о н/о +39.1 -5.0 6 +35 +35 очень
жарко
1009.2 1004.9
09 22.02 ЮЗ 3 н/о н/о +37.4 -4.2 7 +33 +33 жарко 1009.5 1005.2
10 22.02 ЮЗ 2 н/о н/о +33.8 -5.0 8 +30 +30 жарко 1010.4 1006.1
11 22.02 В 2 н/о н/о +30.0 -6.3 9 +26 +26 жарко 1011.1 1006.8
12 22.02 СВ 2 н/о н/о +29.7 -5.1 10 +26 +26 жарко 1011.6 1007.3
13 22.02 В 3 н/о н/о +27.2 -5.8 11 +24 +24 комфорт 1011.8 1007.5
14 22.02 В 3 н/о н/о +26.1 -5.5 12 +23 +23 комфорт 1011.7 1007.4
15 22.02 В 3 н/о н/о +26.5 -5.2 12 +24 +24 комфорт 1011.3 1007.0
16 22.02 ЮЗ 3 н/о н/о +24.0 -7.1 12 +22 +22 комфорт 1011.1 1006.8
17 22.02 Ю 3 н/о н/о +23.6 -6.4 13 +22 +22 комфорт 1010.8 1006.5
18 22.02 Ю 3 н/о н/о +23.3 -6.6 13 +21 +21 комфорт 1011.0 1006.7
19 22.02 ЮЗ 4 н/о н/о +21.7 -7.9 13 +20 +20 1011.8 1007.5
20 22.02 Ю 6 н/о н/о +23.4 -1.5 19 +22 +22 комфорт 1013.0 1008.7
21 22.02 Ю 5 н/о н/о +23.4 +4.4 29 +23 +23 комфорт 1014.2 1009.8
22 22.02 Ю 7 н/о н/о +25.7 +5.8 28 +25 +25 комфорт 1015.0 1010.6
23 22.02 Ю 7 н/о н/о +27.8 +5.4 24 +27 +27 жарко 1015.6 1011.2
00 23.02 Ю 6 н/о н/о +29.7 +5.1 21 +28 +28 жарко 1015.9 1011.5
01 23.02 Ю 6 н/о н/о +32.0 +4.7 18 +30 +30 жарко 1015.7 1011.3
02 23.02 Ю 4 н/о н/о +34.9 +3.5 14 +32 +32 жарко 1015.1 1010.7
03 23.02 Ю 4 н/о н/о +36.6 +2.6 12 +33 +33 жарко 1014.5 1010.1
04 23.02 Ю 4 н/о н/о +38.2 +1.3 10 +35 +35 очень
жарко
1014.0 1009.6
05 23.02 Ю 4 н/о н/о +39.2 +0.6 9 +35 +35 очень
жарко
1013.2 1008.9
06 23.02 Ю 3 н/о н/о +39.3 -1.0 8 +35 +35 очень
жарко
1012.9 1008.6
07 23.02 Ю 5 н/о н/о +39.1 +0.5 9 +35 +35 очень
жарко
1012.8 1008.5
08 23.02 Ю 6 н/о н/о +38.0 -0.3 9 +34 +34 очень
жарко
1013.1 1008.8
09 23.02 Ю 6 н/о н/о +36.6 +1.4 11 +33 +33 жарко 1013.8 1009.5
10 23.02 Ю 4 н/о н/о +34.0 +3.7 15 +31 +31 жарко 1014.9 1010.5
11 23.02 Ю 5 н/о н/о +32.2 +5.7 19 +30 +30 жарко 1015.5 1011.1
12 23.02 Ю 4 н/о н/о +30.4 +4.9 20 +29 +29 жарко 1016.0 1011.6
13 23.02 Ю 4 н/о н/о +29.3 +5.4 22 +28 +28 жарко 1015.8 1011.4
14 23.02 Ю 5 н/о н/о +28.7 +6.1 24 +28 +28 жарко 1015.6 1011.2
15 23.02 Ю 4 н/о н/о +27.1 +7.5 29 +27 +27 жарко 1015.2 1010.8
16 23.02 Ю 6 н/о н/о +26.5 +7.5 30 +26 +26 жарко 1014.9 1010.5
17 23.02 Ю 5 н/о н/о +25.8 +7.4 31 +26 +26 жарко 1014.9 1010.5
18 23.02 Ю 5 н/о н/о +24.8 +7.4 33 +25 +25 комфорт 1014.8 1010.4
19 23.02 Ю 5 н/о н/о +24.5 +7.2 33 +25 +25 комфорт 1015.1 1010.7
20 23.02 Ю 5 н/о н/о +24.2 +6.5 32 +24 +24 комфорт 1016.0 1011.6
21 23.02 Ю 4 н/о н/о +23.8 +6.6 33 +24 +24 комфорт 1017.3 1012.9
22 23.02 Ю 5 н/о н/о +25.3 +7.0 31 +25 +25 комфорт 1017.8 1013.4
23 23.02 Ю 9 н/о н/о +28.0 +7.3 27 +27 +27 жарко 1018.1 1013.7
00 24.02 Ю 9 н/о н/о +30.5 +7.7 24 +29 +29 жарко 1018.2 1013.8
01 24.02 Ю 8 н/о н/о +32.9 +7.7 21 +31 +31 жарко 1017.9 1013.5
02 24.02 Ю 8 н/о н/о +34.9 +7.1 18 +33 +33 жарко 1017.1 1012.7
03 24.02 Ю 8 н/о н/о +36.4 +6.6 16 +34 +34 очень
жарко
1016.2 1011.8
04 24.02 Ю 7 н/о н/о +37.8 +5.7 14 +35 +35 очень
жарко
1015.3 1010.9
05 24.02 Ю 8 н/о н/о +38.2 +5.0 13 +35 +35 очень
жарко
1014.6 1010.2

 

Местоположение метеостанции Moomba Airport (Южная Австралия, Австралия): широта -28.10 долгота 140.20 высота над уровнем моря 38 м.

В архиве по умолчанию представлена погода в Moomba Airport за последнюю неделю. Архивные данные за месяц целиком и за предыдущие месяцы, начиная с января 2011 года, Вы можете получить, выбрав интересующий диапазон дат из раскрывающегося списка и нажав кнопку "Ввод!".

Внимание! Время в таблицах - всемирное. Для получения местного времени необходимо прибавить поправку, которая в Moomba Airport равна 9.5 ч.

Смотрите также архив погоды в соседних городах и на ближайших метеорологических станциях:

Погода в Ballera Gas Field (Квинсленд, Австралия) (176 км)
Погода в Tibooburra Airport (Новый Южный Уэльс, Австралия) (235 км)
Погода в Birdsville Airport (Квинсленд, Австралия) (259 км)
Погода в Marree Aero (Южная Австралия, Австралия) (271 км)
Погода в Leigh Creek Airport (Южная Австралия, Австралия) (327 км)
Погода в Thargomindah Airport (Квинсленд, Австралия) (355 км)
Погода в Fowlers Gap Aws (Новый Южный Уэльс, Австралия) (362 км)
Погода в White Cliffs Aws (Новый Южный Уэльс, Австралия) (413 км)
Погода в Olympic Dam Aerodrome (Южная Австралия, Австралия) (417 км)
Погода в Broken Hill Airport (Новый Южный Уэльс, Австралия) (450 км)

Пояснения к столбцам:

Ветер - указаны скорость ветра в м/с - средняя за 10 мин, порывы в срок и между сроками (в фигурных скобках) и направление, откуда дует ветер: С - северный, СВ - северо-восточный, В - восточный, ЮВ - юго-восточный, Ю - южный, ЮЗ - юго-западный, З - западный, СЗ - северо-западный.
Видимость - горизонтальная дальность видимости в метрах или километрах. При видимости от 1 до 10 км при отсутствии осадков обычно наблюдается дымка, при ухудшении видимости до 1 км и менее - туман. В сухую погоду видимость может ухудшаться дымом, пылью или мглою.
Явления - указаны атмосферные явления, наблюдавшиеся в срок или в последний час перед сроком; фигурными скобками обозначены явления, наблюдавшиеся между сроками (за 1-3 часа до срока); квадратными скобками обозначены град или гололедные отложения с указанием их диаметра в мм.
Облачность - указаны через наклонную черту общая и нижняя облачность в баллах и высота нижней границы облаков в метрах; квадратными скобками обозначены формы облаков: Ci - перистые, Cs - перисто-слоистые, Cc - перисто-кучевые, Ac - высококучевые, As - высокослоистые, Sc - слоисто-кучевые, Ns - слоисто-дождевые, Cu - кучевые, Cb - кучево-дождевые. Подробнее классификацию облаков см. в Атласе облаков (PDF).
T - Температура воздуха - температура, измеренная на высоте 2 м над землей.
Td - Температура точки росы - температура, при понижении до которой содержащийся в воздухе водяной пар достигнет насыщения.
f - Относительная влажность воздуха - влажноcть воздуха, измеренная на высоте 2 м над землей.
Te - Эффективная температура - температура, которую ощущает одетый по сезону человек в тени. Характеристика душности погоды. При расчете учитывается влияние влажности воздуха и скорости ветра на теплоощущения человека.
Tes - Эффективная температура на солнце - температура, которую ощущает человек, с поправкой на солнечный нагрев. Характеристика знойности погоды. Зависит от высоты солнца над горизонтом, облачности и скорости ветра. Ночью, в пасмурную погоду, а также при ветре 12 м/с и более поправка равна нулю.
P - Атмосферное давление - приведенное к уровню моря атмосферное давление.
Po - Атмосферное давление - измеренное на уровне метеостанции атмосферное давление.
Tmin - Минимальная температура - минимум температуры воздуха на высоте 2 м над землей.
Tmax - Максимальная температура - максимум температуры воздуха на высоте 2 м над землей.
R - Количество осадков - Количество выпавших осадков, мм. При наведении курсора мыши на число - период времени, за который выпало указанное количество осадков.
S - Снежный покров - Высота снежного покрова, см. При наведении курсора мыши на число - состояние снежного покрова и степень покрытия местности в баллах.